Date,TemperatureHighF,TemperatureAvgF,TemperatureLowF,DewpointHighF,DewpointAvgF,DewpointLowF,HumidityHigh,HumidityAvg,HumidityLow,PressureMaxIn,PressureMinIn,WindSpeedMaxMPH,WindSpeedAvgMPH,GustSpeedMaxMPH,PrecipitationSumIn
2013-9-1,84,77,73,72,71,69,92,82,69,0.00,40.00,11,5,17,0.00
2013-9-2,80,75,72,73,72,69,93,89,76,0.00,40.00,6,2,10,0.06
2013-9-3,81,74,67,71,65,55,94,75,45,0.00,40.00,10,4,18,0.00
2013-9-4,80,71,62,58,55,48,84,61,36,0.00,40.00,11,5,18,0.00
2013-9-5,78,70,63,59,52,41,80,56,30,0.00,40.00,10,4,19,0.00
2013-9-6,69,63,55,48,45,39,78,52,34,0.00,40.00,9,4,17,0.00
2013-9-7,76,63,50,55,47,-100,86,60,31,0.00,40.00,11,4,17,0.00
2013-9-8,81,72,64,62,56,44,85,60,36,0.00,40.00,14,6,21,0.00
2013-9-9,70,66,62,59,51,44,78,58,44,0.00,40.00,13,6,19,0.00
2013-9-10,86,76,67,71,67,59,81,72,60,0.00,40.00,11,6,18,0.00
2013-9-11,91,82,74,74,71,69,87,69,51,0.00,40.00,14,5,16,0.00
2013-9-12,86,76,71,72,69,65,91,79,58,0.00,40.00,9,4,27,1.27
2013-9-13,76,69,62,67,60,49,93,74,47,0.00,40.00,15,6,21,0.09
2013-9-14,66,58,53,49,44,-100,84,63,50,0.00,40.00,12,7,21,0.00
2013-9-15,72,58,47,56,47,42,88,70,36,0.00,40.00,7,3,16,0.00
2013-9-16,69,63,60,58,55,50,88,75,58,0.00,40.00,9,3,14,0.06
2013-9-17,62,56,48,50,40,36,86,56,39,0.00,40.00,12,5,21,0.03
2013-9-18,57,46,44,49,43,41,91,87,74,0.00,40.00,3,0,7,0.00
2013-9-19,73,60,49,56,50,47,92,72,41,0.00,40.00,8,3,14,0.00
2013-9-20,73,64,53,59,55,51,93,74,52,0.00,40.00,11,4,16,0.00
2013-9-21,75,65,54,67,59,-100,95,83,60,0.00,40.00,13,5,25,0.10
2013-9-22,70,64,57,67,51,42,94,65,44,0.00,40.00,12,6,22,0.45
2013-9-23,65,57,47,44,41,39,80,58,40,0.00,40.00,12,6,18,0.00
2013-9-24,71,58,45,49,45,42,89,63,40,0.00,40.00,7,3,15,0.00
2013-9-25,69,60,48,52,48,42,91,65,49,0.00,40.00,8,3,13,0.00
2013-9-26,68,59,50,58,54,48,94,84,66,0.00,40.00,9,2,16,0.00
2013-9-27,65,60,52,56,53,50,95,77,62,0.00,40.00,11,4,12,0.00
2013-9-28,70,62,56,55,51,-100,91,69,50,0.00,40.00,9,4,14,0.00
2013-9-29,67,59,51,57,52,49,95,77,57,0.00,40.00,8,2,14,0.00
2013-9-30,69,59,48,56,52,47,95,78,49,0.00,40.00,7,2,11,0.00